Wetbulb
68.82 69.92 72.38 72.83 73.17 73.59 73.92 73.76 73.76 74.00 74.34 74.42 74.42 74.46 74.39 74.25 74.08 74.12 73.88 73.50 73.06 72.70 72.62 72.63 72.78 72.56 72.61 72.86 72.80 72.76 72.51 72.46 72.90 72.56 72.31 72.88 72.28 72.36 72.09 72.19 72.29 70.27 71.32
69.71 69.72 71.79 72.70 73.37 73.71 73.78 73.60 73.60 73.78 74.04 73.83 74.11 74.14 74.08 74.18 73.88 73.67 73.51 73.10 72.54 71.99 72.25 72.13 72.07 72.07 71.99 72.16 72.47 72.45 72.34 72.06 72.14 71.77 71.53 72.36 72.28 71.79 71.97 72.41 72.04 72.17 72.09
69.95 69.44 70.16 72.21 73.08 73.40 73.70 73.70 73.70 73.95 73.94 73.62 73.80 73.67 73.75 73.03 72.66 72.64 72.81 72.80 72.36 71.24 71.47 71.49 71.42 71.57 71.57 71.41 71.53 71.67 71.59 71.28 70.98 71.02 72.28 72.38 71.05 71.56 71.54 71.77 71.94 71.75 71.55
70.35 69.82 69.81 71.72 72.64 73.14 73.33 73.53 73.40 73.65 73.57 73.53 73.58 73.44 73.15 72.64 72.46 72.14 72.38 72.72 72.19 70.88 70.29 70.34 70.58 70.52 70.75 70.95 71.02 71.06 70.94 70.31 70.91 71.48 72.38 70.42 70.83 71.45 71.12 70.75 70.86 71.03 70.79
71.35 70.72 70.90 71.41 71.91 72.63 72.84 72.96 73.14 73.08 72.94 73.11 73.20 73.01 72.69 72.44 72.11 72.00 72.24 72.42 72.11 70.98 70.07 69.45 69.30 69.22 69.25 69.51 69.72 69.99 70.00 70.05 70.73 70.85 70.96 71.89 72.01 71.12 70.88 70.63 71.27 70.83 70.69
72.17 71.10 70.59 70.65 71.28 71.92 72.30 72.44 72.51 72.38 72.37 72.86 73.00 72.69 72.17 71.82 71.67 71.52 71.72 71.91 71.55 71.83 71.52 70.63 69.41 68.44 68.36 68.45 68.41 68.19 68.21 68.33 68.75 71.40 71.26 71.56 72.11 70.54 71.50 71.38 71.25 71.08 70.61
72.31 71.23 71.36 70.19 71.02 71.68 72.13 71.92 71.44 71.46 71.64 72.14 72.47 72.34 71.78 71.46 71.15 71.02 70.54 70.15 69.70 69.53 69.22 69.34 69.92 70.29 69.83 69.00 68.23 67.70 67.67 67.91 67.64 68.09 69.18 70.47 71.26 69.46 69.75 69.90 70.87 70.99 70.70
72.69 72.21 71.49 70.98 70.10 70.04 70.33 70.24 69.91 70.02 70.29 70.51 69.91 69.47 69.11 69.09 69.01 68.56 67.98 67.58 67.21 66.78 66.33 65.49 65.44 66.96 67.59 67.48 68.15 68.33 68.73 68.72 69.11 68.59 68.29 70.16 69.58 69.87 69.54 69.37 70.04 70.57 70.96
72.44 72.93 72.93 71.98 70.57 67.77 67.50 67.46 67.55 67.84 67.99 68.08 67.60 67.35 66.84 66.73 66.39 66.07 66.00 65.59 65.10 64.54 64.07 63.73 63.56 64.13 64.93 64.40 64.56 64.98 66.30 66.91 68.34 68.84 69.94 69.21 67.61 68.50 69.68 70.02 69.84 70.63 70.33
72.36 72.87 72.81 72.34 71.08 70.32 68.75 66.85 66.96 67.19 67.17 67.05 66.93 66.28 66.13 65.61 64.93 64.15 63.76 61.50 61.46 61.00 60.71 60.29 60.62 61.59 63.46 63.31 62.60 63.55 64.54 66.07 69.29 68.92 68.99 66.85 65.98 67.09 67.72 68.23 68.15 68.39 69.13
69.20 69.54 71.08 69.75 68.92 70.01 68.61 67.03 67.53 67.13 66.78 66.51 66.95 66.88 66.34 66.53 64.28 60.46 59.76 59.94 59.73 59.59 59.80 59.82 60.53 60.60 62.28 62.95 60.87 61.86 62.51 66.04 66.55 67.12 66.31 62.28 62.73 65.34 66.96 67.51 66.96 66.68 67.37
66.73 66.84 68.21 67.70 67.46 67.01 66.14 65.73 65.91 65.61 64.01 64.01 64.68 66.17 65.60 62.70 61.24 60.55 60.61 61.16 61.37 60.10 60.92 61.01 61.43 62.17 62.58 61.38 61.27 61.69 59.85 60.61 60.81 62.48 64.12 60.29 59.91 61.64 63.73 64.89 65.55 65.97 66.03
65.69 66.03 66.95 66.74 65.24 64.66 64.04 62.60 62.23 63.50 62.78 61.27 61.11 61.67 62.05 61.34 61.27 60.87 60.35 59.99 59.99 60.86 59.01 59.80 59.17 58.40 58.90 59.07 59.47 60.46 60.74 61.22 60.24 59.31 59.65 58.76 59.28 60.46 61.20 61.55 62.75 64.26 64.58
63.46 62.67 61.99 64.21 64.39 64.49 63.40 61.19 61.73 58.28 59.55 59.44 59.27 59.65 59.80 58.35 59.28 57.49 57.12 57.43 57.75 58.17 58.29 58.47 58.27 58.64 58.04 57.66 57.69 57.66 59.29 59.85 60.37 60.74 59.29 58.60 59.45 60.56 61.83 62.14 62.40 62.16 61.93
59.01 57.84 57.82 58.59 60.91 61.73 60.17 61.29 60.94 59.88 58.03 58.02 58.06 59.75 59.59 58.67 58.67 58.29 58.65 58.02 58.23 58.30 57.94 58.17 58.03 57.64 57.15 57.23 57.27 57.26 58.50 59.12 59.98 60.14 60.50 58.17 57.69 57.69 59.26 60.65 61.45 62.65 63.08
58.89 59.55 58.62 58.35 60.62 62.05 61.04 61.11 61.20 60.15 58.97 58.46 58.54 58.67 59.48 59.10 58.85 58.34 58.38 58.19 57.95 58.21 58.39 58.28 57.84 57.86 57.63 57.73 56.98 57.01 58.50 58.42 59.23 59.41 59.14 58.52 57.51 57.27 56.63 57.46 58.72 59.45 60.43
61.31 60.41 59.85 60.66 60.32 60.16 59.65 59.46 59.03 59.13 59.14 58.76 58.67 59.50 59.41 59.57 59.37 59.52 58.35 57.89 57.88 58.25 58.32 58.00 57.06 57.23 56.20 56.02 56.18 56.47 57.63 58.33 57.15 58.10 57.86 58.40 57.92 57.08 56.94 55.76 55.62 56.83 57.33
62.37 59.25 58.25 58.90 60.05 60.10 59.80 58.94 58.75 59.31 59.23 59.17 59.28 59.27 59.62 59.34 59.42 58.85 57.44 56.84 57.47 57.22 55.69 55.14 55.02 54.35 54.33 53.95 53.84 54.59 55.63 57.03 57.52 56.75 56.19 56.84 55.55 55.37 56.87 56.64 56.34 55.54 55.29
60.21 58.25 58.21 59.52 58.85 58.60 58.16 58.23 58.66 59.08 58.50 58.73 58.89 58.80 58.90 58.58 58.49 57.81 56.39 56.31 56.87 55.16 54.41 53.73 53.83 53.74 53.24 52.87 52.67 53.56 54.59 55.27 56.46 54.96 55.24 55.55 55.66 54.89 54.52 55.74 56.10 55.96 56.15
59.51 58.48 58.21 58.25 58.42 58.24 57.27 57.34 57.52 57.37 57.90 58.78 58.48 58.09 58.48 57.92 57.44 56.87 56.19 55.25 55.35 53.77 52.93 52.54 52.43 52.41 52.63 51.77 51.09 51.87 53.78 55.26 56.39 53.37 53.63 53.90 54.55 53.92 54.07 53.64 53.75 53.28 55.37
58.17 56.77 57.12 57.32 58.17 58.09 57.44 56.50 56.64 56.33 57.50 57.88 58.06 58.06 57.71 57.26 56.81 56.28 55.28 54.03 53.60 52.48 51.93 51.95 50.80 50.47 50.08 50.93 49.11 49.63 51.84 53.78 55.12 51.62 53.60 52.81 52.07 51.81 52.27 52.20 53.03 52.45 52.83
57.08 56.73 56.72 57.48 57.99 58.47 58.73 58.16 58.07 57.66 57.87 57.65 57.48 56.99 56.67 56.11 55.73 54.27 53.39 51.82 51.54 50.14 49.73 49.25 48.11 47.15 47.60 49.06 46.11 47.04 44.51 49.13 49.49 50.80 51.45 51.72 49.89 50.05 49.42 50.05 50.66 51.51 50.15
57.32 56.89 57.36 57.93 57.96 58.43 58.75 58.25 57.62 57.65 57.91 57.04 56.14 54.98 54.23 53.38 52.65 51.95 50.24 49.66 49.02 48.29 46.68 46.91 46.78 46.03 44.00 46.71 47.44 44.73 41.04 40.38 42.86 48.38 48.23 46.81 48.41 46.82 47.28 47.47 47.62 47.62 48.83
57.92 58.71 58.82 58.59 58.13 58.19 59.03 57.93 57.47 57.23 55.40 55.94 55.38 54.18 52.56 51.26 49.41 48.60 48.59 48.01 47.91 47.15 46.18 45.89 45.97 45.84 45.63 43.31 44.90 45.05 45.36 43.60 39.44 38.12 43.56 45.24 45.38 45.10 46.81 45.27 45.76 46.46 47.75
58.68 58.66 59.17 58.39 57.97 58.18 58.53 58.70 57.97 56.69 56.67 56.35 54.93 53.44 52.41 50.60 47.94 46.92 47.51 47.56 46.83 45.98 45.72 45.48 45.43 45.35 45.31 43.57 42.64 42.31 42.42 41.89 41.92 38.45 35.83 38.90 41.82 43.12 43.73 44.20 45.90 45.76 45.78
58.87 58.61 58.38 57.92 57.46 58.18 58.42 58.13 57.65 57.02 55.80 54.65 54.51 53.20 51.53 49.38 47.07 46.39 46.60 46.71 46.21 45.13 44.80 44.85 45.37 45.28 44.44 43.81 43.09 42.48 40.83 38.81 38.23 37.64 36.36 37.05 38.05 40.46 42.60 43.79 44.41 43.92 44.92
MSLP
1013.50 1015.38 1016.21 1016.43 1016.59 1016.77 1016.94 1017.02 1017.23 1017.37 1017.52 1017.76 1017.96 1018.01 1017.98 1018.02 1018.17 1018.17 1018.16 1018.16 1018.03 1018.22 1018.01 1017.97 1017.92 1017.83 1017.75 1017.81 1017.90 1017.96 1018.00 1017.97 1017.92 1017.86 1017.73 1017.73 1017.99 1018.03 1018.05 1018.09 1017.89 1017.59 1018.11
1014.15 1015.54 1016.56 1016.74 1017.00 1017.17 1017.35 1017.36 1017.41 1017.53 1017.72 1017.90 1018.01 1018.26 1018.42 1018.56 1018.64 1018.61 1018.58 1018.37 1018.42 1018.28 1018.39 1018.41 1018.46 1018.36 1018.45 1018.41 1018.39 1018.37 1018.34 1018.31 1018.08 1017.84 1017.75 1017.81 1017.78 1018.19 1018.22 1018.19 1018.24 1018.26 1018.43
1014.88 1016.07 1016.72 1017.20 1017.01 1017.24 1017.52 1017.59 1017.85 1018.05 1018.10 1018.14 1018.22 1018.26 1018.45 1018.78 1018.98 1018.88 1018.86 1018.70 1018.73 1018.73 1018.58 1018.52 1018.73 1018.66 1018.67 1018.82 1018.83 1018.82 1018.69 1018.50 1018.06 1017.52 1017.55 1017.06 1017.02 1018.03 1018.25 1018.37 1018.61 1018.79 1018.91
1015.09 1015.97 1016.65 1017.48 1017.71 1017.79 1017.98 1018.13 1018.30 1018.33 1018.39 1018.46 1018.60 1018.72 1018.76 1018.80 1018.99 1019.18 1019.15 1019.15 1018.89 1018.91 1018.93 1018.96 1018.85 1019.02 1018.95 1018.88 1018.76 1018.71 1018.70 1018.63 1018.26 1017.83 1016.98 1016.12 1016.32 1017.75 1018.27 1018.63 1018.92 1019.09 1019.18
1015.16 1016.02 1017.25 1017.71 1017.95 1018.05 1018.17 1018.34 1018.43 1018.47 1018.59 1018.78 1018.93 1019.08 1019.24 1019.25 1019.15 1019.04 1018.99 1019.08 1019.08 1019.02 1019.10 1019.23 1019.21 1019.18 1019.10 1019.19 1019.14 1018.97 1018.82 1018.66 1018.35 1017.70 1016.80 1017.17 1017.40 1018.50 1018.62 1018.95 1018.98 1019.12 1019.08
1015.13 1016.68 1018.18 1018.39 1018.75 1018.69 1018.82 1018.85 1018.95 1019.07 1019.14 1019.24 1019.31 1019.34 1019.36 1019.46 1019.46 1019.52 1019.59 1019.45 1019.51 1019.50 1019.54 1019.51 1019.53 1019.56 1019.54 1019.51 1019.51 1019.34 1019.19 1018.95 1018.60 1017.04 1016.74 1017.15 1017.69 1018.89 1018.98 1019.12 1019.06 1018.95 1019.11
1016.06 1017.45 1018.37 1019.10 1019.33 1019.58 1019.45 1019.61 1019.72 1019.89 1019.92 1019.98 1019.97 1019.83 1019.75 1019.66 1019.82 1019.83 1019.93 1020.06 1020.00 1020.04 1020.13 1020.10 1020.05 1019.93 1019.77 1019.68 1019.69 1019.67 1019.50 1019.25 1018.48 1017.11 1016.59 1017.68 1018.19 1018.83 1018.95 1019.00 1018.94 1019.03 1019.03
1016.69 1017.72 1018.60 1019.47 1019.71 1020.23 1020.25 1020.26 1020.35 1020.42 1020.55 1020.68 1020.67 1020.96 1020.84 1020.70 1020.54 1020.59 1020.53 1020.54 1020.58 1020.55 1020.47 1020.48 1020.55 1020.35 1020.27 1020.16 1020.02 1019.88 1019.65 1019.46 1018.59 1017.07 1017.03 1017.26 1018.75 1018.82 1019.00 1019.10 1018.96 1018.93 1019.17
1017.71 1018.20 1018.70 1019.02 1019.96 1020.62 1020.76 1020.79 1020.85 1020.85 1021.07 1021.39 1021.62 1021.51 1021.49 1021.59 1021.39 1021.39 1021.49 1021.33 1021.19 1021.10 1020.89 1020.75 1020.76 1020.74 1020.54 1020.43 1020.41 1020.20 1020.05 1019.75 1019.05 1018.25 1017.62 1018.03 1019.22 1019.19 1019.29 1019.20 1019.01 1018.94 1018.92
1018.40 1018.58 1018.83 1019.24 1020.00 1020.66 1020.93 1021.17 1021.31 1021.16 1021.17 1021.63 1022.02 1022.04 1021.68 1021.66 1021.80 1021.58 1021.50 1021.98 1021.92 1021.63 1021.44 1021.27 1020.99 1020.93 1020.80 1020.50 1020.42 1020.18 1020.10 1019.77 1018.82 1018.29 1018.26 1019.24 1019.73 1019.79 1019.61 1019.42 1019.36 1019.12 1018.90
1019.67 1019.91 1019.67 1020.07 1020.96 1020.95 1021.51 1021.70 1021.68 1021.78 1021.34 1021.89 1022.33 1022.13 1022.02 1021.45 1021.69 1022.18 1022.39 1022.12 1022.07 1021.99 1021.55 1021.45 1021.15 1020.74 1020.65 1020.51 1020.17 1020.11 1019.99 1019.46 1019.47 1019.14 1019.36 1019.96 1020.14 1019.94 1019.70 1019.49 1019.51 1019.13 1018.96
1020.41 1020.80 1020.82 1020.73 1021.06 1021.64 1021.30 1022.80 1022.39 1021.93 1021.94 1022.23 1022.79 1022.56 1022.56 1022.44 1022.39 1022.45 1022.55 1022.34 1021.93 1022.09 1021.71 1021.36 1021.27 1020.74 1020.30 1019.90 1019.78 1019.84 1019.68 1019.89 1019.67 1019.65 1019.78 1020.32 1020.43 1020.17 1019.91 1019.80 1019.54 1019.33 1019.17
1020.79 1021.23 1021.51 1021.42 1021.74 1022.07 1022.23 1023.13 1022.78 1022.65 1022.59 1023.15 1023.63 1023.45 1023.32 1023.06 1022.85 1022.49 1022.38 1022.28 1021.97 1022.01 1021.88 1021.39 1021.28 1021.18 1021.17 1020.81 1020.56 1020.45 1020.16 1019.63 1019.19 1019.22 1020.48 1020.74 1020.72 1020.40 1020.04 1019.70 1019.71 1019.49 1019.55
1021.19 1022.40 1022.76 1022.66 1022.77 1022.48 1022.65 1023.66 1023.77 1023.62 1023.26 1023.32 1023.82 1023.90 1024.02 1024.12 1023.81 1023.86 1023.82 1023.34 1022.91 1022.87 1022.65 1022.12 1021.85 1021.85 1021.63 1021.31 1021.17 1020.92 1020.54 1020.25 1019.81 1019.64 1020.54 1020.95 1020.96 1020.58 1020.12 1019.76 1019.59 1019.66 1019.69
1022.16 1023.23 1023.55 1023.56 1023.65 1023.65 1023.74 1023.90 1024.04 1024.12 1023.98 1023.99 1024.20 1024.35 1024.17 1023.88 1023.97 1024.02 1023.82 1023.54 1023.26 1023.06 1022.72 1022.39 1022.16 1021.89 1021.63 1021.56 1021.36 1021.29 1020.83 1020.58 1020.45 1020.22 1020.18 1020.88 1021.28 1021.14 1020.96 1020.57 1020.38 1020.10 1019.59
1022.89 1023.31 1023.75 1023.94 1023.98 1023.74 1024.07 1024.25 1024.09 1024.06 1024.09 1024.20 1024.41 1024.59 1024.62 1024.46 1024.25 1024.23 1024.07 1023.73 1023.50 1023.39 1023.08 1022.77 1022.43 1021.96 1021.63 1021.50 1021.13 1021.13 1021.05 1020.78 1020.67 1020.75 1020.28 1020.68 1021.08 1021.27 1021.37 1021.32 1020.96 1020.75 1020.40
1022.49 1022.92 1023.01 1023.23 1023.55 1023.74 1023.79 1023.81 1023.80 1023.96 1024.19 1024.46 1024.72 1024.98 1025.10 1024.68 1024.51 1024.24 1024.31 1024.18 1024.01 1023.82 1023.37 1022.93 1022.78 1022.23 1021.88 1021.62 1021.28 1020.90 1020.70 1020.87 1021.00 1020.77 1020.64 1020.66 1020.73 1021.04 1021.24 1021.27 1021.20 1021.14 1020.87
1021.77 1022.32 1022.76 1023.05 1023.54 1023.74 1024.02 1023.95 1024.15 1024.36 1024.55 1024.75 1024.98 1025.26 1025.30 1025.22 1024.94 1024.80 1024.77 1024.88 1024.63 1024.29 1024.04 1023.59 1023.25 1022.94 1022.60 1022.36 1021.87 1021.19 1020.97 1020.70 1021.11 1020.87 1020.94 1020.81 1021.08 1020.82 1020.77 1020.97 1021.22 1021.28 1021.09
1021.89 1022.43 1023.00 1023.47 1023.92 1024.03 1024.66 1024.63 1024.85 1024.94 1024.96 1025.21 1025.35 1025.49 1025.76 1025.69 1025.49 1025.35 1025.62 1025.56 1025.09 1024.85 1024.78 1024.42 1023.96 1023.78 1023.20 1023.01 1022.23 1021.60 1021.32 1020.88 1021.02 1021.09 1021.08 1020.92 1021.08 1021.22 1020.87 1020.94 1021.20 1021.10 1021.18
1022.07 1022.81 1023.42 1023.91 1024.17 1024.43 1024.80 1024.94 1025.20 1025.31 1025.45 1025.52 1025.76 1026.06 1026.09 1026.19 1026.02 1025.61 1025.74 1026.03 1025.36 1025.43 1025.33 1025.38 1024.96 1024.39 1023.74 1023.67 1022.94 1022.11 1021.33 1021.06 1021.03 1021.69 1021.20 1021.06 1021.23 1021.52 1021.27 1021.27 1021.06 1021.04 1021.15
1022.37 1022.98 1023.57 1024.19 1024.36 1024.24 1024.30 1024.52 1024.87 1025.12 1025.44 1025.70 1026.20 1026.52 1026.57 1026.60 1026.44 1026.34 1026.06 1026.14 1025.91 1025.74 1026.11 1026.05 1025.80 1025.16 1024.33 1024.30 1023.58 1022.56 1021.09 1020.95 1021.26 1022.11 1021.49 1021.55 1022.14 1022.09 1021.79 1021.49 1021.24 1021.13 1021.09
1022.39 1023.04 1023.69 1023.97 1023.96 1023.90 1024.07 1024.29 1024.57 1025.05 1025.56 1026.07 1026.63 1026.96 1027.03 1027.12 1027.11 1026.84 1026.98 1026.78 1026.81 1026.40 1026.68 1026.68 1026.57 1025.99 1025.40 1025.09 1024.74 1023.48 1022.49 1021.46 1022.32 1022.47 1022.35 1022.15 1022.82 1022.50 1022.21 1022.02 1021.68 1021.53 1021.67
1022.39 1022.89 1023.29 1023.65 1023.81 1023.89 1024.23 1024.71 1025.22 1025.55 1025.46 1025.62 1026.18 1026.87 1027.47 1027.60 1027.71 1027.80 1027.76 1027.71 1027.53 1027.38 1027.36 1027.33 1027.25 1026.90 1026.34 1025.74 1025.68 1025.46 1024.56 1024.07 1024.05 1022.88 1023.00 1023.25 1023.20 1023.08 1022.75 1022.53 1022.23 1022.08 1021.75
1022.19 1022.66 1022.89 1023.28 1023.67 1024.09 1024.14 1024.49 1024.57 1024.43 1024.97 1025.83 1026.31 1027.03 1027.58 1028.10 1028.26 1028.30 1028.27 1028.30 1028.25 1028.02 1028.10 1027.84 1027.76 1027.60 1027.11 1026.57 1026.38 1026.38 1026.40 1026.08 1025.26 1024.33 1024.13 1023.75 1023.72 1023.40 1023.26 1023.03 1022.63 1022.27 1021.88
1021.99 1022.50 1022.72 1023.34 1023.59 1024.05 1024.08 1024.27 1024.51 1024.84 1025.60 1025.96 1026.53 1027.02 1027.56 1028.03 1028.62 1028.58 1028.65 1028.79 1028.78 1028.54 1028.52 1028.27 1028.15 1027.97 1027.70 1027.47 1027.21 1026.95 1026.73 1026.41 1026.17 1025.79 1024.87 1024.45 1024.36 1024.03 1023.69 1023.38 1022.98 1022.53 1022.10
1021.85 1022.54 1023.01 1023.24 1023.67 1024.13 1024.43 1024.75 1024.90 1025.32 1025.62 1026.02 1026.57 1026.77 1027.28 1027.62 1028.22 1028.88 1028.88 1029.13 1029.10 1029.05 1028.89 1028.62 1028.48 1028.31 1028.32 1028.14 1028.00 1027.61 1027.25 1027.03 1026.67 1026.45 1025.84 1025.26 1024.70 1024.31 1024.01 1023.49 1023.21 1022.88 1022.74
Wind_Speed
17 14 11 11 12 12 12 13 13 13 14 13 12 12 12 13 13 13 13 12 13 13 14 14 13 13 13 12 12 10 10 10 8 7 8 11 11 10 8 10 10 8 9
16 15 10 12 13 14 14 14 14 14 14 14 14 12 12 13 13 13 12 12 11 13 13 13 12 12 11 10 9 9 10 8 4 0 4 10 13 9 8 10 14 11 7
17 14 13 10 13 14 14 15 15 14 14 14 13 13 13 12 12 11 10 10 11 11 12 11 10 11 11 10 9 8 8 6 5 7 6 9 14 9 8 9 9 7 5
15 13 13 11 11 14 14 14 13 14 13 12 12 12 12 12 11 11 11 10 11 12 12 11 10 9 9 8 7 6 5 5 9 12 11 8 11 12 7 5 3 2 1
14 14 13 11 11 12 13 12 12 12 11 11 11 12 11 11 11 11 10 10 10 11 11 10 10 9 8 7 6 6 4 4 10 13 8 8 8 9 6 2 4 4 1
15 16 12 11 9 10 9 10 9 9 10 10 10 10 11 10 11 11 11 12 13 12 11 10 9 9 9 8 6 5 5 6 10 13 8 8 7 10 8 6 7 6 4
15 14 14 10 12 9 10 11 11 10 10 9 9 10 11 12 13 14 16 16 17 16 16 15 14 11 9 9 9 9 10 11 11 9 8 13 11 9 8 9 9 6 5
14 14 14 14 17 16 16 16 17 17 17 15 16 15 15 16 18 17 17 16 15 15 15 15 14 13 14 14 13 11 10 11 13 8 4 5 11 11 9 9 7 7 7
12 10 10 13 18 19 17 17 17 18 18 17 14 14 17 17 18 18 18 17 16 15 15 14 13 11 9 11 11 9 9 11 12 9 9 10 16 14 11 9 8 8 6
8 10 10 12 13 11 12 15 13 13 15 14 9 7 13 14 14 15 15 16 16 16 14 12 10 6 4 8 8 8 7 11 8 9 4 9 17 17 14 13 13 12 12
12 12 11 13 8 9 10 8 9 13 16 13 6 7 3 7 10 14 14 13 12 10 10 8 5 6 2 4 7 3 9 5 8 6 5 15 14 14 15 13 11 13 13
11 10 7 11 10 9 9 7 8 9 10 10 8 8 6 8 7 8 7 7 8 2 6 5 4 4 10 7 5 3 4 4 4 5 3 10 13 13 13 14 13 12 13
9 9 7 9 10 7 9 5 5 4 6 7 8 7 9 7 7 7 6 7 8 11 8 8 10 9 10 8 8 8 8 8 5 4 12 15 15 14 13 13 12 13 15
14 10 11 10 8 8 7 8 5 5 6 7 9 9 6 6 6 8 6 8 8 7 9 9 7 8 9 9 9 9 9 8 6 5 12 18 17 19 19 18 17 14 13
14 9 9 9 9 9 9 5 6 7 7 9 8 7 6 7 7 6 5 6 6 6 7 7 6 5 6 7 7 8 8 7 8 6 6 14 13 17 20 21 22 21 18
11 12 11 11 7 9 8 7 5 7 8 9 9 9 10 8 6 7 7 7 7 8 7 7 8 7 7 8 7 7 6 8 8 7 6 7 9 10 15 19 19 21 22
12 13 12 13 12 11 10 9 8 7 8 8 9 10 9 8 8 8 8 8 8 8 10 8 9 9 9 9 8 7 5 4 7 7 7 6 5 9 11 15 17 18 20
14 13 14 11 11 11 9 8 7 7 7 7 8 8 11 11 11 10 9 9 9 8 9 9 9 10 9 9 9 7 7 5 5 5 8 7 8 9 4 11 14 12 17
15 14 14 12 12 11 9 9 8 7 7 7 7 8 10 10 10 8 9 8 8 8 9 10 9 9 8 9 10 8 7 5 4 7 8 7 9 10 9 11 12 8 12
14 13 13 10 11 11 8 7 6 6 6 6 7 8 9 8 10 9 8 9 8 8 9 10 11 10 8 10 11 9 7 2 3 9 9 9 12 13 11 12 10 10 10
13 13 12 11 11 8 7 7 6 5 6 6 7 8 9 9 10 11 8 9 9 9 10 11 9 11 9 10 10 11 7 2 6 10 7 8 13 13 13 12 9 9 9
13 12 11 11 9 6 5 5 5 5 6 7 7 8 9 10 11 10 10 9 10 8 10 11 11 8 9 10 10 10 7 6 11 11 9 10 14 11 12 14 14 14 12
13 12 10 9 9 6 8 7 6 5 6 6 6 6 8 10 10 10 10 9 8 8 8 9 10 11 9 9 12 7 6 7 12 6 10 11 10 10 11 12 14 15 13
13 11 10 9 9 9 8 6 5 3 5 5 5 6 7 8 9 9 9 9 8 7 8 8 8 8 8 8 8 8 8 9 9 8 8 9 11 11 11 10 12 13 13
13 11 10 9 9 8 6 5 4 4 5 4 4 5 4 6 8 8 9 8 8 7 8 9 9 9 8 7 7 8 8 7 8 9 11 10 10 10 11 11 11 11 13
12 10 10 10 9 8 7 6 4 5 4 3 2 2 3 4 5 8 7 6 7 8 8 8 8 9 8 8 7 8 7 8 8 9 10 12 13 11 10 10 10 10 11
Wind_Direction
97 110 97 102 96 88 84 87 85 87 92 90 84 81 78 75 66 60 59 55 62 55 61 63 66 69 73 70 66 63 60 52 51 75 93 95 78 59 36 16 341 93 74
111 107 92 97 94 92 92 94 95 97 98 96 92 80 70 67 66 62 59 64 65 70 62 61 64 71 68 71 66 59 65 58 43 95 147 118 92 71 44 32 25 65 65
106 117 107 92 104 102 99 97 96 96 99 100 97 95 90 80 71 69 65 69 64 66 73 76 69 67 68 61 57 50 44 27 335 293 266 220 92 86 61 39 43 59 55
119 117 114 100 93 93 94 95 97 103 105 106 103 95 94 96 87 70 58 49 61 59 55 55 63 57 60 68 71 63 44 6 323 315 291 17 100 106 83 56 40 43 14
120 108 105 99 102 104 105 107 113 117 115 106 100 98 95 91 86 83 76 65 63 61 58 48 45 48 50 41 39 39 25 342 308 299 39 34 27 69 70 8 236 227 225
113 100 94 82 64 86 95 103 105 94 90 88 92 98 96 83 75 64 51 54 50 49 49 50 45 36 27 22 15 10 349 319 299 272 185 133 67 47 26 334 322 344 335
100 113 101 71 70 55 73 66 65 61 63 66 70 80 83 81 70 66 63 58 56 50 44 37 31 32 33 26 14 2 344 321 296 304 329 81 82 57 26 9 356 289 286
104 107 113 90 76 60 59 63 61 57 53 52 60 57 64 66 68 68 69 70 65 60 56 50 36 34 37 36 28 12 343 331 305 283 325 89 60 45 21 0 358 355 270
101 103 124 116 99 77 70 72 73 75 68 61 56 69 69 61 62 60 54 56 59 57 54 49 42 43 50 44 29 13 359 333 311 341 326 42 28 22 5 356 354 356 334
105 108 106 85 74 90 86 72 74 86 92 80 71 84 109 98 71 58 75 57 55 53 51 52 43 37 65 83 44 10 330 297 317 324 310 30 358 338 329 339 347 357 8
52 35 63 84 97 97 74 77 81 55 65 53 25 10 205 52 73 72 68 67 66 75 75 47 15 344 213 139 104 6 297 3 341 344 1 23 358 340 332 325 324 344 352
76 62 73 75 68 70 86 41 55 63 55 47 11 21 64 67 69 85 104 110 77 144 138 113 2 346 5 1 20 212 15 349 318 333 344 16 346 338 336 331 333 342 347
93 76 74 95 92 76 72 66 43 47 77 75 52 44 47 46 25 42 34 34 35 31 23 21 26 27 17 10 9 1 347 329 357 333 62 31 3 351 345 345 335 338 345
86 68 42 56 72 74 76 72 64 61 75 76 60 56 47 52 49 41 34 27 35 23 14 19 22 15 15 14 8 356 357 350 357 328 76 51 31 24 19 12 5 354 350
78 77 74 69 64 64 76 73 78 75 72 74 69 49 55 57 62 49 47 47 34 26 20 16 12 15 13 3 14 358 2 7 358 358 79 81 51 34 26 22 22 21 20
109 104 96 91 104 99 98 121 114 90 87 74 66 59 53 50 49 51 40 35 30 23 16 16 360 1 359 353 6 19 25 12 23 14 8 93 100 66 38 25 24 25 24
111 118 116 98 95 97 101 95 89 86 85 82 76 65 58 44 54 43 39 28 24 19 12 16 8 5 8 4 360 358 343 52 9 3 14 0 29 117 72 40 20 23 22
108 102 98 104 103 87 83 79 80 82 81 79 78 67 51 46 36 37 35 26 15 25 17 10 10 359 8 1 336 345 344 330 17 8 19 1 18 358 44 54 4 28 28
118 117 118 115 110 100 89 88 86 89 76 70 65 64 53 48 37 49 35 25 19 22 26 10 2 3 358 359 326 351 328 343 22 17 352 349 42 4 356 8 355 39 28
120 121 121 123 119 114 109 111 101 96 88 76 67 60 51 51 40 27 47 29 18 31 25 13 0 359 355 1 330 337 300 3 329 26 337 355 33 350 5 358 351 1 16
127 136 138 135 141 143 145 131 136 114 107 90 78 67 59 45 40 29 27 28 9 38 25 17 359 356 358 6 344 335 334 324 89 3 19 336 25 341 354 351 353 351 358
141 141 147 154 149 144 144 106 96 100 86 89 83 69 55 48 37 40 21 24 22 19 28 18 10 357 356 5 353 335 349 316 22 341 12 10 359 350 350 351 343 354 351
152 157 160 151 149 143 123 123 114 132 157 134 107 79 56 49 41 31 30 27 18 26 23 18 16 6 351 359 360 10 344 3 332 333 351 355 343 344 350 342 350 343 340
160 163 157 151 144 149 171 148 192 88 92 83 87 83 81 48 44 39 37 31 26 28 22 16 16 360 1 356 355 12 353 338 330 320 329 324 349 337 345 340 338 334 341
163 167 157 161 156 156 156 151 168 101 138 112 104 108 93 89 51 42 34 29 25 23 20 14 10 11 7 353 356 352 349 335 336 329 321 329 327 338 336 333 329 335 334
167 161 162 167 159 156 154 150 130 136 124 129 79 102 67 60 59 39 35 19 24 13 13 8 8 10 9 359 354 350 350 338 338 331 323 323 327 329 328 323 331 334 336